| time (UTC) | temp C | wind direction | speed KPH | gust KPH | rain 1hr cm | rain 24hr cm | rain mn cm | humidity % | barometer mb |
| 20260510111515 | 10 | 56 | 0.0 | 4.8 | 0.00 | 0.13 | 0.00 | 89 | 1012.0 |
| 20260510110019 | 9 | 226 | 0.0 | 0.0 | 0.00 | 0.13 | 0.00 | 92 | 1011.6 |
| 20260510104507 | 8 | 226 | 0.0 | 0.0 | 0.00 | 0.13 | 0.00 | 91 | 1011.7 |
| 20260510103006 | 8 | 214 | 0.0 | 3.2 | 0.00 | 0.13 | 0.00 | 90 | 1011.3 |
| 20260510101517 | 8 | 271 | 0.0 | 1.6 | 0.00 | 0.13 | 0.00 | 90 | 1011.0 |
| 20260510100020 | 8 | 278 | 0.0 | 1.6 | 0.00 | 0.13 | 0.00 | 90 | 1011.0 |
| 20260510094507 | 8 | 245 | 0.0 | 3.2 | 0.00 | 0.13 | 0.00 | 90 | 1011.0 |
| 20260510093017 | 8 | 32 | 0.0 | 0.0 | 0.00 | 0.13 | 0.00 | 88 | 1010.7 |
| 20260510091517 | 9 | 32 | 0.0 | 0.0 | 0.00 | 0.13 | 0.00 | 87 | 1010.4 |
| 20260510090020 | 10 | 30 | 0.0 | 3.2 | 0.00 | 0.13 | 0.00 | 86 | 1010.2 |
| 20260510084508 | 10 | 28 | 0.0 | 4.8 | 0.00 | 0.13 | 0.00 | 85 | 1010.1 |
| 20260510083010 | 11 | 60 | 0.0 | 4.8 | 0.00 | 0.13 | 0.00 | 85 | 1010.2 |
| 20260510081525 | 10 | 202 | 0.0 | 8.0 | 0.00 | 0.13 | 0.00 | 86 | 1009.5 |
| 20260510080023 | 10 | 322 | 0.0 | 6.4 | 0.00 | 0.13 | 0.00 | 86 | 1010.3 |
| 20260510074508 | 10 | 135 | 1.6 | 4.8 | 0.00 | 0.13 | 0.00 | 87 | 1010.8 |
| 20260510073014 | 10 | 88 | 0.0 | 4.8 | 0.00 | 0.13 | 0.00 | 87 | 1010.8 |
| 20260510071533 | 10 | 25 | 0.0 | 3.2 | 0.00 | 0.13 | 0.00 | 87 | 1010.9 |
| 20260510070022 | 10 | 37 | 0.0 | 3.2 | 0.00 | 0.13 | 0.00 | 86 | 1010.7 |
| 20260510063020 | 10 | 24 | 1.6 | 6.4 | 0.00 | 0.13 | 0.00 | 86 | 1010.9 |
| 20260510061534 | 10 | 336 | 0.0 | 4.8 | 0.00 | 0.13 | 0.00 | 86 | 1010.7 |
| 20260510060023 | 9 | 9 | 0.0 | 3.2 | 0.00 | 0.13 | 0.00 | 87 | 1010.2 |
| 20260510054510 | 9 | 178 | 0.0 | 1.6 | 0.00 | 0.13 | 0.00 | 86 | 1010.6 |
| 20260510051522 | 9 | 193 | 0.0 | 1.6 | 0.00 | 0.13 | 0.00 | 86 | 1010.6 |
| 20260510050023 | 9 | 43 | 0.0 | 4.8 | 0.00 | 0.13 | 0.00 | 86 | 1010.7 |
| 20260510044514 | 10 | 36 | 0.0 | 9.7 | 0.00 | 0.13 | 0.00 | 84 | 1010.4 |
| 20260510043022 | 10 | 34 | 0.0 | 8.0 | 0.00 | 0.13 | 0.00 | 85 | 1010.7 |
| 20260510041523 | 10 | 309 | 1.6 | 9.7 | 0.00 | 0.13 | 0.00 | 85 | 1010.6 |
| 20260510040026 | 10 | 46 | 1.6 | 8.0 | 0.00 | 0.13 | 0.00 | 85 | 1010.2 |
| 20260510034515 | 10 | 46 | 1.6 | 9.7 | 0.00 | 0.13 | 0.13 | 86 | 1010.3 |
| 20260510033020 | 10 | 117 | 1.6 | 3.2 | 0.00 | 0.13 | 0.13 | 85 | 1010.6 |
| 20260510031513 | 10 | 69 | 0.0 | 6.4 | 0.00 | 0.13 | 0.13 | 85 | 1010.5 |
| 20260510030016 | 10 | 75 | 0.0 | 9.7 | 0.00 | 0.13 | 0.13 | 85 | 1010.5 |
| 20260510024523 | 9 | 158 | 0.0 | 4.8 | 0.00 | 0.13 | 0.13 | 86 | 1010.5 |
| 20260510023022 | 9 | 29 | 0.0 | 6.4 | 0.00 | 0.13 | 0.13 | 86 | 1010.4 |
| 20260510021507 | 9 | 81 | 3.2 | 11.3 | 0.00 | 0.13 | 0.13 | 85 | 1010.6 |
| 20260510020012 | 9 | 75 | 1.6 | 9.7 | 0.00 | 0.13 | 0.13 | 86 | 1010.6 |
| 20260510014520 | 9 | 68 | 3.2 | 6.4 | 0.00 | 0.13 | 0.13 | 86 | 1010.6 |
| 20260510013020 | 9 | 319 | 0.0 | 8.0 | 0.00 | 0.13 | 0.13 | 86 | 1010.9 |
| 20260510003048 | 9 | 117 | 0.0 | 4.8 | 0.00 | 0.13 | 0.13 | 87 | 1010.9 |
| 20260510001511 | 9 | 14 | 0.0 | 3.2 | 0.00 | 0.13 | 0.13 | 87 | 1010.6 |
| 20260509233025 | 9 | 25 | 0.0 | 4.8 | 0.00 | 0.13 | 0.13 | 88 | 1010.2 |
| 20260509231507 | 9 | 39 | 0.0 | 3.2 | 0.00 | 0.13 | 0.13 | 88 | 1010.4 |
| 20260509230020 | 9 | 53 | 0.0 | 6.4 | 0.00 | 0.13 | 0.13 | 88 | 1010.5 |
| 20260509224523 | 9 | 60 | 0.0 | 4.8 | 0.00 | 0.13 | 0.13 | 87 | 1010.4 |
| 20260509223027 | 9 | 117 | 1.6 | 4.8 | 0.00 | 0.13 | 0.13 | 88 | 1010.4 |
| 20260509221510 | 9 | 34 | 0.0 | 6.4 | 0.00 | 0.13 | 0.13 | 88 | 1010.6 |
| 20260509220016 | 9 | 90 | 1.6 | 4.8 | 0.00 | 0.13 | 0.13 | 88 | 1010.6 |
| 20260509214521 | 9 | 269 | 0.0 | 6.4 | 0.00 | 0.13 | 0.13 | 89 | 1010.8 |
| 20260509213026 | 8 | 44 | 0.0 | 3.2 | 0.03 | 0.13 | 0.13 | 90 | 1011.0 |
| 20260509211514 | 8 | 316 | 0.0 | 3.2 | 0.03 | 0.13 | 0.13 | 89 | 1011.2 |
| 20260509210022 | 8 | 309 | 0.0 | 4.8 | 0.03 | 0.13 | 0.13 | 89 | 1011.2 |
| 20260509204504 | 8 | 48 | 1.6 | 4.8 | 0.03 | 0.13 | 0.13 | 89 | 1011.2 |
| 20260509203008 | 8 | 212 | 0.0 | 6.4 | 0.00 | 0.10 | 0.10 | 87 | 1011.4 |
| 20260509201517 | 9 | 89 | 0.0 | 3.2 | 0.00 | 0.10 | 0.10 | 86 | 1011.7 |
| 20260509200023 | 9 | 32 | 0.0 | 6.4 | 0.00 | 0.10 | 0.10 | 85 | 1011.7 |
| 20260509194510 | 10 | 34 | 0.0 | 4.8 | 0.00 | 0.10 | 0.10 | 84 | 1011.7 |
| 20260509193010 | 10 | 40 | 0.0 | 4.8 | 0.00 | 0.10 | 0.10 | 85 | 1011.7 |
| 20260509191515 | 10 | 295 | 0.0 | 3.2 | 0.00 | 0.10 | 0.10 | 85 | 1011.7 |
| 20260509183021 | 9 | 167 | 0.0 | 0.0 | 0.00 | 0.10 | 0.10 | 88 | 1012.0 |
| 20260509180023 | 8 | 47 | 0.0 | 4.8 | 0.03 | 0.10 | 0.10 | 88 | 1012.2 |
| 20260509174509 | 8 | 13 | 0.0 | 3.2 | 0.08 | 0.10 | 0.10 | 87 | 1012.1 |
| 20260509173018 | 9 | 22 | 0.0 | 6.4 | 0.08 | 0.10 | 0.10 | 86 | 1012.4 |
| 20260509171519 | 9 | 82 | 1.6 | 6.4 | 0.10 | 0.10 | 0.10 | 85 | 1012.7 |
| 20260509170022 | 10 | 44 | 1.6 | 8.0 | 0.08 | 0.08 | 0.08 | 82 | 1012.9 |
| 20260509164511 | 10 | 130 | 1.6 | 9.7 | 0.03 | 0.03 | 0.03 | 81 | 1013.0 |
| 20260509163022 | 10 | 319 | 1.6 | 9.7 | 0.03 | 0.03 | 0.03 | 79 | 1013.2 |
| 20260509161518 | 10 | 15 | 3.2 | 11.3 | 0.00 | 0.00 | 0.00 | 75 | 1013.4 |
| 20260509160023 | 10 | 226 | 1.6 | 4.8 | 0.00 | 0.00 | 0.00 | 74 | 1013.5 |
| 20260509154513 | 10 | 37 | 1.6 | 6.4 | 0.00 | 0.00 | 0.00 | 74 | 1013.6 |
| 20260509153017 | 10 | 39 | 0.0 | 8.0 | 0.00 | 0.00 | 0.00 | 71 | 1013.8 |
| 20260509151524 | 10 | 113 | 0.0 | 8.0 | 0.00 | 0.00 | 0.00 | 67 | 1013.9 |
| 20260509150024 | 10 | 49 | 1.6 | 9.7 | 0.00 | 0.00 | 0.00 | 60 | 1013.9 |
| 20260509144525 | 10 | 51 | 1.6 | 9.7 | 0.00 | 0.00 | 0.00 | 56 | 1013.8 |
| 20260509143017 | 11 | 307 | 1.6 | 6.4 | 0.00 | 0.00 | 0.00 | 54 | 1013.6 |
| 20260509140026 | 11 | 334 | 1.6 | 11.3 | 0.00 | 0.00 | 0.00 | 54 | 1013.4 |
| 20260509134515 | 11 | 337 | 3.2 | 11.3 | 0.00 | 0.00 | 0.00 | 50 | 1013.4 |
| 20260509133022 | 11 | 46 | 0.0 | 9.7 | 0.00 | 0.00 | 0.00 | 50 | 1013.6 |
| 20260509131523 | 10 | 55 | 1.6 | 6.4 | 0.00 | 0.00 | 0.00 | 51 | 1013.5 |
| 20260509130028 | 10 | 307 | 3.2 | 6.4 | 0.00 | 0.00 | 0.00 | 55 | 1013.6 |
| 20260509124515 | 8 | 24 | 0.0 | 9.7 | 0.00 | 0.00 | 0.00 | 60 | 1014.0 |
| 20260509123022 | 7 | 236 | 1.6 | 11.3 | 0.00 | 0.00 | 0.00 | 63 | 1014.0 |
| 20260509121503 | 6 | 90 | 0.0 | 4.8 | 0.00 | 0.00 | 0.00 | 64 | 1014.3 |
| 20260509120004 | 5 | 325 | 0.0 | 4.8 | 0.00 | 0.00 | 0.00 | 70 | 1014.4 |
| 20260509114505 | 4 | 23 | 1.6 | 9.7 | 0.00 | 0.00 | 0.00 | 73 | 1014.5 |
| 20260509113005 | 2 | 27 | 0.0 | 1.6 | 0.00 | 0.00 | 0.00 | 80 | 1014.6 |